This is the latest recevied weather packets stored in our database for station/object N5GMJ. If no packets are shown the sender has not sent any weather packets the latest 10 day(s).
| Time | Temp. | Humidity | Pressure | Rain* | Wind** | Luminosity | Snow |
|---|---|---|---|---|---|---|---|
| 1777240101 | 27.78° C | 75% | 1006.8 hPa | 0 mm | - | - | - |
| 1777239800 | 27.78° C | 75% | 1006.6 hPa | 0 mm | - | - | - |
| 1777239495 | 27.78° C | 77% | 1006.8 hPa | 0 mm | - | - | - |
| 1777239193 | 27.78° C | 75% | 1007 hPa | 0 mm | - | - | - |
| 1777238890 | 28.33° C | 75% | 1007 hPa | 0 mm | - | - | - |
| 1777238587 | 27.78° C | 77% | 1006.8 hPa | 0 mm | - | - | - |
| 1777238283 | 28.33° C | 76% | 1007 hPa | 0 mm | - | - | - |
| 1777237980 | 27.78° C | 76% | 1007.1 hPa | 0 mm | - | - | - |
| 1777237676 | 27.78° C | 77% | 1007 hPa | 0 mm | - | - | - |
| 1777237374 | 27.78° C | 75% | 1007 hPa | 0 mm | - | - | - |
| 1777237071 | 28.33° C | 75% | 1007.1 hPa | 0 mm | - | - | - |
| 1777236769 | 28.33° C | 75% | 1007.3 hPa | 0 mm | - | - | - |
| 1777236468 | 28.33° C | 75% | 1007.4 hPa | 0 mm | - | - | - |
| 1777236164 | 28.33° C | 73% | 1007.4 hPa | 0 mm | - | - | - |
| 1777235860 | 28.33° C | 76% | 1007.4 hPa | 0 mm | - | - | - |
| 1777235558 | 27.78° C | 76% | 1007.5 hPa | 0 mm | - | - | - |
| 1777235253 | 27.22° C | 78% | 1007.7 hPa | 0 mm | - | - | - |
| 1777234950 | 27.78° C | 77% | 1007.8 hPa | 0 mm | - | - | - |
| 1777234646 | 27.78° C | 77% | 1008.1 hPa | 0 mm | - | - | - |
| 1777234341 | 27.78° C | 76% | 1007.8 hPa | 0 mm | - | - | - |
| 1777234037 | 27.78° C | 76% | 1008 hPa | 0 mm | - | - | - |
| 1777233734 | 27.22° C | 78% | 1008 hPa | 0 mm | - | - | - |
| 1777233429 | 28.33° C | 77% | 1007.9 hPa | 0 mm | - | - | - |
| 1777233129 | 27.78° C | 79% | 1007.9 hPa | 0 mm | - | - | - |
| 1777232825 | 26.67° C | 80% | 1007.9 hPa | 0 mm | - | - | - |
* Rain latest hour (hover to see other rain measurements)
** Current wind speed in m/s (hover to see current wind gust speed)